EHI
11 8 7 6 4 5 8 8 6 4 3 2 3 4 5 3 2 1 1 0 0 0 0 0 0 0 0 0 0 0 0 0 0 0 0 0 0 0
11 9 7 7 5 5 6 6 5 4 3 2 3 4 4 2 1 1 1 0 0 0 0 0 0 0 0 0 0 0 0 0 0 0 0 0 0 0
14 11 9 7 5 3 3 3 3 3 2 2 3 5 5 3 2 1 1 0 0 0 0 0 0 0 0 0 0 0 0 0 0 0 0 0 0 0
14 12 9 7 3 1 1 1 1 2 1 1 3 6 7 5 4 3 1 0 0 0 0 0 0 0 0 0 0 0 0 0 0 0 0 0 0 0
11 9 7 5 3 1 0 0 1 2 2 2 2 4 5 4 4 3 1 0 0 0 0 0 0 0 0 0 0 0 0 0 0 0 0 0 0 0
8 7 6 4 2 1 1 1 2 2 2 2 1 1 2 2 1 1 1 1 0 0 0 0 0 0 0 0 0 0 0 0 0 0 0 0 0 0
7 6 4 2 1 0 1 2 2 2 1 1 0 0 0 1 1 0 0 0 0 0 0 0 0 0 0 0 0 0 0 0 0 0 0 0 0 0
6 5 2 1 0 0 0 1 1 1 1 0 0 0 0 1 1 1 0 0 0 0 1 0 0 0 0 0 0 0 0 0 0 0 0 0 0 0
5 4 2 1 0 0 0 0 0 0 0 0 0 0 1 2 1 1 1 0 0 0 0 0 0 0 0 0 0 0 0 0 0 0 0 0 0 0
6 5 4 2 0 0 1 1 0 0 0 0 0 0 1 2 2 1 1 0 0 0 0 0 0 0 0 0 0 0 0 0 0 0 0 0 0 0
6 6 4 2 0 0 1 1 0 0 0 0 0 0 0 1 1 1 1 0 0 0 0 0 0 0 0 0 0 0 0 0 0 0 0 0 0 0
5 4 3 1 0 0 0 1 0 0 0 0 0 0 0 0 0 0 0 0 0 0 0 0 0 0 0 0 0 0 0 0 0 0 0 0 0 0
3 3 2 1 0 0 0 1 0 0 0 0 0 0 0 0 0 0 0 0 0 0 0 0 0 0 0 0 0 0 0 0 0 0 0 0 0 0
1 1 1 1 0 0 0 0 0 0 0 0 0 0 0 0 0 0 0 1 1 1 0 0 0 0 0 0 0 0 0 0 0 0 0 0 0 0
0 0 0 0 0 0 0 0 0 0 0 0 0 0 0 0 0 0 0 1 2 1 1 1 1 1 1 1 1 1 1 1 1 1 0 0 0 0
0 0 0 0 0 0 0 0 0 0 0 0 0 0 0 0 0 0 0 1 1 1 2 2 2 2 2 2 2 2 2 2 2 2 1 0 0 0
0 0 0 0 0 0 1 0 0 1 1 2 1 0 0 0 0 0 0 0 0 1 1 1 1 2 3 3 3 3 3 4 3 3 1 0 0 0
0 0 0 0 0 0 0 0 0 1 2 3 2 1 0 0 0 0 0 0 0 0 0 0 0 1 2 3 3 3 4 4 4 3 2 1 0 0
0 0 0 0 0 0 0 0 0 1 2 2 2 1 0 0 0 0 0 0 0 0 0 0 0 0 1 1 2 2 3 4 4 3 2 1 0 0
0 0 0 0 0 0 0 0 0 0 1 1 1 1 0 0 0 0 0 0 0 0 0 1 0 0 0 0 1 1 1 2 3 2 1 0 0 0
0 0 0 0 0 0 0 0 0 0 0 0 0 0 0 0 0 0 0 0 0 0 0 0 0 0 0 0 0 0 0 1 1 1 0 0 0 0
0 0 0 0 0 0 0 0 0 0 0 0 0 0 0 0 0 0 0 0 0 0 0 0 1 1 1 0 0 0 0 0 0 0 0 0 0 0
0 0 0 0 0 0 0 0 0 0 0 0 0 0 0 0 0 0 0 0 0 0 0 1 2 2 1 0 0 0 0 0 0 0 0 0 0 0
Wind_Speed
2 2 1 2 2 1 1 1 1 1 1 1 0 1 1 1 4 3 3 4 5 4 4 3 4 4 4 4 4 4 4 4 4 5 5 5 5 5
1 1 1 1 2 2 1 1 1 1 1 1 1 2 1 1 3 3 3 5 5 5 4 4 4 4 5 5 5 5 4 4 4 4 4 5 4 4
1 1 1 1 1 2 2 1 1 0 0 0 1 1 2 1 2 2 3 3 3 5 5 5 4 4 4 4 4 4 5 5 5 5 5 5 5 4
1 0 1 1 1 2 2 1 1 0 1 1 1 1 1 1 1 2 2 3 3 5 6 6 5 5 4 4 4 4 5 5 6 5 5 5 5 5
0 0 0 1 1 1 1 1 1 1 1 1 1 1 1 1 1 1 2 1 2 4 5 6 6 5 5 5 4 4 4 5 5 5 5 5 5 5
1 1 1 0 1 1 1 1 1 1 0 0 1 1 1 0 0 1 1 1 1 1 2 4 5 6 6 5 5 4 5 5 5 5 5 5 5 5
1 1 1 1 2 1 1 1 1 1 0 0 0 0 0 0 1 1 1 1 1 1 1 1 2 2 4 5 5 5 6 6 6 6 6 6 6 6
1 1 1 2 2 2 1 0 1 1 1 1 0 1 1 1 1 1 1 1 1 1 1 2 1 2 2 3 6 7 7 7 7 7 7 7 6 6
1 1 1 0 1 1 2 2 1 1 2 2 2 2 2 1 1 2 2 2 3 2 1 2 1 1 1 2 6 7 8 8 7 7 7 7 6 6
0 0 1 0 1 1 2 1 1 0 1 1 1 2 1 1 2 2 3 3 3 1 1 1 1 1 1 1 4 5 6 7 7 7 7 7 7 7
1 1 1 1 1 0 1 1 1 1 1 0 1 2 3 4 2 1 1 1 2 1 0 1 1 1 1 1 2 5 5 7 7 8 8 8 7 6
2 2 1 1 1 1 1 1 2 2 2 1 1 2 3 4 4 4 2 2 2 2 1 1 1 1 2 1 1 2 3 5 6 7 8 8 7 4
1 1 1 3 2 1 1 2 2 2 2 2 2 1 1 1 2 3 2 2 2 2 1 1 1 1 1 2 1 2 2 2 3 3 5 7 7 6
1 0 1 1 2 3 2 3 3 2 2 2 1 1 1 1 1 2 2 2 2 3 2 1 2 2 2 2 2 1 2 2 2 2 2 3 4 6
2 2 2 3 3 3 5 5 3 2 2 2 2 2 2 2 1 1 2 2 3 3 2 2 2 2 2 2 2 2 2 2 1 1 1 2 2 2
2 3 3 5 4 4 4 4 4 3 2 2 2 2 2 1 2 1 2 2 2 2 2 2 2 2 2 2 2 2 2 2 1 1 1 1 1 1
2 2 2 2 3 3 3 3 3 3 3 2 2 2 1 2 2 1 2 2 2 2 2 2 2 2 2 2 2 2 2 1 1 1 1 1 1 1
1 3 3 3 3 3 2 2 2 2 2 2 2 2 2 2 2 1 1 1 2 2 1 1 1 2 1 1 2 2 2 1 1 1 1 1 1 1
3 4 3 3 3 2 2 1 1 1 1 1 2 2 2 2 2 2 1 1 2 2 1 1 1 1 2 2 2 2 2 2 1 1 1 1 1 1
3 3 3 3 2 1 1 1 1 1 1 1 1 2 2 2 2 2 2 2 2 2 2 2 1 2 2 3 2 2 2 2 1 1 1 1 0 1
3 2 2 2 1 1 1 1 1 1 1 1 1 2 2 2 2 2 2 3 3 3 3 2 2 3 2 1 1 1 1 1 1 1 1 1 1 2
2 2 2 2 2 2 1 1 0 1 1 1 2 2 2 2 3 3 3 3 3 3 3 2 1 1 1 2 2 1 1 1 1 2 2 2 2 2
1 2 2 2 1 1 2 1 1 1 1 1 2 2 2 3 3 3 4 4 3 3 2 2 1 1 2 2 2 2 2 2 1 1 2 3 5 4
Wind_Direction
240 258 259 282 292 291 278 197 182 190 192 192 155 153 146 132 148 156 144 157 165 172 183 201 213 219 225 226 225 225 224 220 215 217 217 218 219 223
227 249 254 288 315 324 313 281 232 196 183 193 187 156 161 174 156 168 167 161 173 182 189 200 208 209 216 219 220 221 217 210 208 209 211 214 217 219
243 242 240 334 323 316 317 332 354 60 150 170 134 137 136 155 169 187 178 171 177 189 198 202 204 207 213 216 218 219 212 203 202 206 211 214 215 218
252 293 308 284 311 325 320 330 348 134 148 164 146 145 162 174 168 204 188 182 181 186 195 201 202 204 209 210 215 218 210 203 201 206 215 219 219 222
165 357 304 319 312 307 315 322 324 312 141 168 183 183 164 172 159 213 208 201 206 186 189 202 207 207 207 205 206 209 207 204 204 207 213 217 222 225
188 179 186 187 311 302 300 311 326 334 328 133 156 140 116 127 153 232 259 234 252 238 183 191 202 207 210 206 205 204 202 202 205 208 213 217 222 226
234 165 151 122 91 57 349 338 334 347 348 112 129 80 21 8 297 270 281 280 265 239 230 219 197 206 209 210 209 208 206 206 206 209 214 217 221 225
280 214 165 124 133 148 171 196 225 214 230 234 243 220 244 257 264 270 274 285 281 273 268 268 218 208 209 199 198 199 205 206 207 210 215 218 221 224
300 289 314 26 158 207 217 214 230 240 222 213 218 234 222 223 246 273 281 279 266 255 254 276 261 243 245 204 193 200 204 208 213 218 222 225 225 230
241 200 186 237 269 264 245 223 232 288 257 216 216 244 233 236 224 242 259 277 265 257 200 265 276 265 271 210 200 196 200 205 213 219 223 227 230 234
198 183 193 187 329 339 230 273 289 281 279 246 221 233 232 238 229 247 275 293 296 285 317 301 287 295 286 245 194 196 206 213 217 223 228 231 232 238
197 177 121 128 92 78 239 253 266 285 301 281 252 244 235 229 218 210 231 257 276 288 308 325 291 306 296 276 218 204 229 231 230 231 233 234 231 226
258 195 144 139 149 191 250 253 243 269 279 260 234 227 221 208 202 208 218 226 247 267 273 261 276 277 260 285 274 231 218 219 220 231 234 234 224 206
304 9 98 162 209 230 233 241 259 279 268 262 253 250 232 230 234 236 244 248 237 238 251 233 249 257 264 282 284 261 247 226 206 211 206 212 216 208
332 328 259 234 239 235 228 235 242 238 242 255 252 249 249 244 237 243 247 253 258 258 254 237 239 257 259 254 263 268 269 265 215 195 191 195 201 186
275 279 258 247 248 247 239 223 223 230 233 244 254 258 261 257 240 230 246 251 265 282 271 249 250 245 259 259 253 272 264 253 243 203 179 198 210 191
284 257 239 233 234 233 227 223 218 215 228 243 247 259 265 270 270 254 241 247 248 252 249 250 246 235 236 258 257 266 270 269 257 226 191 220 226 208
244 252 251 249 246 248 241 231 223 224 233 241 238 244 254 253 265 271 264 267 274 274 274 274 272 274 266 299 280 269 270 269 279 265 221 226 250 212
231 248 250 253 255 255 257 262 253 248 258 257 255 256 261 264 262 260 260 267 266 272 276 287 288 281 274 267 272 268 261 265 271 290 272 237 238 200
243 258 263 265 260 261 288 302 290 279 280 279 273 278 278 275 274 270 257 263 273 278 277 275 260 250 249 264 271 282 263 251 237 261 287 307 90 107
263 274 286 295 303 292 282 307 324 318 323 306 301 296 289 284 281 279 266 265 263 259 258 255 248 251 245 253 258 254 264 251 239 236 254 268 254 236
288 302 316 322 321 321 318 328 312 301 303 300 302 294 287 284 282 279 275 271 265 263 264 268 251 275 274 254 261 255 246 247 266 266 266 233 232 240
313 315 310 312 321 325 334 341 339 331 320 312 307 299 295 289 284 275 268 263 265 266 267 267 266 280 277 267 269 275 272 257 246 250 264 243 225 228